[ hide orbit diagram ]
For accurate long-term ephemerides, please instead use our Horizons system.This orbit viewer was implemented using two-body methods, and hence should not be used for determining accurate long-term trajectories (over several years or decades) or planetary encounter circumstances.
Orbital Elements at Epoch 2459000.5 (2020-May-31.0) TDB
Reference: JPL 29 (heliocentric ecliptic J2000)
Element | Value | Uncertainty (1-sigma) | Units |
e | .1923199258706749 | 4.9005e-08 | |
a | 3.934966284824252 | 3.6188e-08 | au |
q | 3.178193860623247 | 2.0567e-07 | au |
i | 7.570298835215513 | 5.389e-06 | deg |
node | 314.0847699447102 | 3.9556e-05 | deg |
peri | 81.68226941596583 | 4.1607e-05 | deg |
M | 9.759701133817527 | 1.2882e-05 | deg |
tp | 2458923.206322948586 (2020-Mar-14.70632295) | 0.00010165 | TDB |
period | 2851.08358923948 7.81 | 3.933e-05 1.077e-07 | d yr |
n | .1262677816107206 | 1.7418e-09 | deg/d |
Q | 4.691738709025257 | 4.3147e-08 | au |
|
| | Orbit Determination Parameters
Additional Information
|
[ show covariance matrix ]
Physical Parameter Table
Parameter |
Symbol |
Value |
Units |
Sigma |
Reference |
Notes |
absolute magnitude |
H |
12.8 |
|
n/a |
MPO453210 |
|
diameter |
diameter |
15.282 |
km |
0.616 |
urn:nasa:pds:neowise_diameters_albedos::2.0[hildas] (http://adsabs.harvard.edu/abs/2012ApJ...744..197G) |
|
geometric albedo |
albedo |
0.063 |
|
0.015 |
urn:nasa:pds:neowise_diameters_albedos::2.0[hildas] (http://adsabs.harvard.edu/abs/2012ApJ...744..197G) |
|
|
78815 (2003 PN6) Discovered 2003-Aug-01 by LINEAR at Socorro |
Reference: 20040415/Numbers.arc | Last Updated: 2004-04-19 |
|
[ show close-approach data ]
Alternate Designations
2003 PN6 = 1998 BM13 = 2002 LF2 |
|
|